Regional Weather Roundup
Issued by NWS Bismarck, ND

Home | Current Version | Previous Version | Text Only | Print | Product List | Glossary On
Versions: 1 2 3 4 5 6 7 8 9 10 11 12 13 14 15 16 17 18 19 20 21 22 23 24 25 26 27 28 29 30 31 32 33 34 35 36 37 38 39 40 41 42 43 44 45 46 47 48 49 50
000
ASUS43 KBIS 021910
RWRBIS

NWR BROADCAST TEXT
NATIONAL WEATHER SERVICE BISMARCK ND
200 PM CDT TUE SEP 02 2014

NOTE: "FAIR" INDICATES FEW OR NO CLOUDS BELOW 12,000 FEET WITH NO
SIGNIFICANT WEATHER AND/OR OBSTRUCTIONS TO VISIBILITY.


CITY           SKY/WX    TMP DP  RH WIND       PRES   REMARKS
WILLISTON      SUNNY     74  46  36 W15       29.77F
MINOT          SUNNY     75  47  36 W21       29.72R
MINOT AFB      SUNNY     74  52  45 W20G28    29.71R
BISMARCK       SUNNY     79  51  37 W9        29.79F
DICKINSON      PTSUNNY   73  46  38 W13G21    29.82S
GARRISON         N/A     76  46  34 W21G26    29.76S
HETTINGER ARPT SUNNY     74  49  41 W12       29.86S
JAMESTOWN      SUNNY     76  52  43 S12       29.77F
BEACH            N/A     70  45  40 W10G16    29.85S
CARRINGTON     FAIR      72  52  49 SW13      29.76F
CROSBY         FAIR      72  46  40 NW12G22   29.76R
HARVEY         FAIR      77  48  36 W16G24    29.74S
HAZEN          FAIR      75  48  38 W14       29.78F
LINTON         FAIR      77  55  47 SW15G22   29.81F
MANDAN         FAIR      75  50  41 W12       29.80F
OAKES            N/A     77  61  57 S15G23    29.82F
RUGBY          FAIR      73  54  49 W13       29.70F
STANLEY        FAIR      72  46  40 W15G25    29.76S
TIOGA          FAIR      73  45  35 NW16      29.79S
WATFORD CITY   FAIR      73  45  35 W15G23    29.77S
$$

CITY           SKY/WX    TMP DP  RH WIND       PRES   REMARKS
GRAND FORKS    MOSUNNY   74  56  53 S16G22    29.73F
GRAND FORKS AF MOSUNNY   73  57  57 S13       29.74F
DEVILS LAKE    SUNNY     72  54  53 SW16      29.71F
FARGO          MOSUNNY   77  52  41 SW10G20   29.79F
CANDO          FAIR      75  52  43 W14G20    29.71F
CAVALIER       FAIR      73  55  53 S9        29.69F
GRAFTON        FAIR      73  52  46 SW13G18   29.71S
GWINNER        CLEAR     75  57  53 SW14      29.83F
LANGDON        FAIR      75  50  41 SW20      29.70F
ROLLA          FAIR      70  54  56 SW16G24   29.71S
WALHALLA       FAIR      75  48  38 SW8G18    29.68F
$$

CITY           SKY/WX    TMP DP  RH WIND       PRES   REMARKS
ABERDEEN       SUNNY     76  54  46 SW13G20   29.85F
MOBRIDGE       SUNNY     80  48  32 W13       29.81F
BUFFALO          N/A     75  46  35 NW13      29.81S
RAPID CITY     SUNNY     78  49  35 VRB6      29.89F
GLASGOW        PTSUNNY   70  43  37 VRB7      29.80F
SIDNEY         PTSUNNY   72  46  40 W15       29.81S
WOLF POINT     PTSUNNY   70  48  45 SW12      29.80F
GLENDIVE       PTSUNNY   73  43  33 NW16G23   29.83F
MILES CITY     PTSUNNY   73  39  29 W10       29.85F
BAKER          MOSUNNY   71  42  35 NW12      29.88S
$$

CITY           SKY/WX    TMP DP  RH WIND       PRES   REMARKS
BILLINGS       MOSUNNY   71  39  31 VRB3      29.88F
GREAT FALLS    CLOUDY    67  37  33 W15G22    29.82F
REGINA         MOSUNNY   64  50  59 NW14G20   29.75R
ESTEVAN        MOSUNNY   70  50  49 NW16      29.75R
$$




USA.gov is the U.S. government's official web portal to all federal, state and local government web resources and services.